Погода в Владимирской

Россия / Краснодарский край     44°32′44″N   40°47′17″E
темп.,
°C
ветер,
м/с
пор.,
м/с
влажн.,
%
обл.,
%
осадки,
мм/ч
давл.,
гПа
погр.,
м
4 декабря, сб
сб400:00+5ю336375 0.0 101928
03:00+5ю3456100 0.0 101940
06:00+5ю455727 0.0 101859
09:00+6ю465613 0.0 101881
12:00+13ююв3440100 0.0 1015195
15:00+13юв114644 0.0 101410
18:00+9ююв335399 0.0 101416
21:00+8ю3362100 0.0 101335
5 декабря, вс
вс500:00+7ю3358100 0.0 101229
03:00+8ю2254100 0.0 101215
06:00+8ююв1153100 0.0 101210
09:00+8ююз1154100 0.0 101310
12:00+11юв1145100 0.0 1013195
15:00+12юв115096 0.0 101358
18:00+9ююв225321 0.0 101413
21:00+8ю336174 0.0 101541
6 декабря, пн
пн600:00+7ю226941 0.0 101625
03:00+7ююв117495 0.0 101710
06:00+6ююв447618 0.0 101853
09:00+7ююв35667 0.0 101885
12:00+13ююв224752 0.0 1017237
15:00+14в114983 0.0 101712
18:00+10ююв225481 0.0 101814
21:00+8ююв44640 0.0 101848
7 декабря, вт
вт700:00+8ююв44655 0.0 101852
03:00+7ююв44635 0.0 101851
06:00+7ююв45625 0.0 101756
09:00+8ююв35565 0.0 101777
12:00+15юв343815 0.0 1013220
15:00+15в234259 0.0 101146
18:00+10юв335028 0.0 101026
21:00+9ююв335353 0.0 100835
8 декабря, ср
ср800:00+8ююв334855 0.0 100721
03:00+8ююз22491 0.0 100810
06:00+7ю22487 0.0 100711
09:00+8юв22476 0.0 100812
12:00+13св124018 0.0 1007250
15:00+12с1251100 0.0 100743
18:00+8ююз2258100 0.0 100910
21:00+8ююв2258100 0.0 101012